Flag for Dominican Republic Past Weather in Santiago de los Caballeros, Dominican Republic — Yesterday and Last 2 Weeks

Now
77 °F

Passing clouds.


Feels Like: 78 °F
Forecast: 74 / 90 °F
Wind: 7 mph from South

Location: Santiago

Current Time: Jul 29, 2016 at 12:13:43 AM

Latest Report: Jul 29, 2016 at 12:00 AM


Visibility: N/A

Pressure: 30.04 "Hg

Humidity: 94%

Dew Point: 75 °F

Location of Santiago de los CaballerosLocation

Past Weather in Santiago de los Caballeros — Graph

°F

Santiago de los Caballeros Temperature Yesterday

Maximum temperature yesterday: 93 °F (at 3:00 PM)
Minimum temperature yesterday: 73 °F (at 1:00 AM)
Average temperature yesterday: 82 °F

High & Low Weather Summary for the Past Weeks

 TemperatureHumidityPressure
High93 °F (Jul 16, 3:00 PM)100% (Jul 14, 2:00 AM)30.09 "Hg (Jul 14, 2:00 AM)
Low72 °F (Jul 14, 2:00 AM)44% (Jul 16, 3:00 PM)29.92 "Hg (Jul 27, 4:00 PM)
Average81 °F80%30.01 "Hg
* Reported Jul 13 11:00 PM — Jul 28 11:00 PM, Santiago de los Caballeros, Weather by CustomWeather, © 2016

Note: Actual official high and low records may vary slightly from our data, if they occured in-between our weather recording intervals... More about our weather records

Advertising

Santiago de los Caballeros Weather History for the Previous 24 Hours

Scroll right to see more
 ConditionsComfort  
Time TempWeatherWind HumidityBarometerVisibility
11:00 PM
Thu, Jul 28
79 °FPassing clouds.5 mph84%30.04 "HgN/A
10:00 PM81 °FPassing clouds.6 mph79%30.04 "HgN/A
9:00 PM82 °FPassing clouds.6 mph70%30.01 "HgN/A
8:00 PM82 °FPassing clouds.9 mph74%29.98 "HgN/A
7:00 PM86 °FScattered clouds.7 mph62%29.95 "HgN/A
6:00 PM88 °FScattered clouds.8 mph55%29.95 "HgN/A
5:00 PM90 °FScattered clouds.12 mph52%29.95 "HgN/A
4:00 PM90 °FScattered clouds.14 mph52%29.95 "HgN/A
3:00 PM93 °FScattered showers. Scattered clouds.14 mph49%29.92 "Hg4 mi
2:00 PM91 °FPassing clouds.12 mph52%29.98 "HgN/A
1:00 PM90 °FPassing clouds.12 mph55%30.01 "HgN/A
12:00 PM88 °FPassing clouds.14 mph62%30.01 "HgN/A
11:00 AM86 °FPassing clouds.14 mph66%30.04 "HgN/A
10:00 AM84 °FScattered clouds.12 mph74%30.04 "HgN/A
9:00 AM81 °FScattered clouds.7 mph84%30.01 "HgN/A
8:00 AM75 °FScattered clouds.7 mph94%30.04 "HgN/A
7:00 AM73 °FScattered clouds.No wind94%30.01 "HgN/A
6:00 AM73 °FPassing clouds.No wind94%29.98 "HgN/A
5:00 AM73 °FPassing clouds.3 mph94%29.98 "HgN/A
4:00 AM73 °FPassing clouds.3 mph100%30.01 "HgN/A
3:00 AM73 °FPassing clouds.No wind94%30.01 "HgN/A
2:00 AM75 °FPassing clouds.No wind89%30.01 "HgN/A
1:00 AM73 °FPassing clouds.5 mph94%30.01 "HgN/A
12:00 AM75 °FPassing clouds.No wind89%30.04 "HgN/A
Weather by CustomWeather, © 2016

See weather overviewHow to use our weather pages